Theta_e
305 300 297 300 303 300 297 298 296 299 301 295 295 297 298 302 299 299 299 299 300 309 319 321 322 323 324 322 322 322 323 327 327 324 322 322 322 323 322 322 321 320 321 320
298 296 302 304 303 302 298 298 297 298 298 295 293 294 299 299 300 300 302 302 303 302 302 308 319 322 323 324 321 323 323 324 327 328 327 326 325 325 325 324 323 321 320 319
295 298 303 302 299 299 297 297 296 296 295 295 294 292 294 299 300 301 302 302 303 303 304 304 308 319 322 322 321 322 323 323 325 327 327 321 320 318 319 321 323 323 321 320
298 302 301 300 298 300 295 300 299 295 295 290 295 290 291 297 299 299 304 303 303 303 302 304 303 310 319 321 322 322 323 323 323 326 325 323 323 322 323 323 323 324 322 321
296 297 299 298 299 302 297 302 299 295 293 290 287 287 293 291 292 299 302 304 305 304 303 303 303 305 314 319 320 321 322 322 323 324 325 323 322 323 323 320 319 321 321 322
299 301 301 300 302 303 299 298 296 294 292 287 291 291 287 289 292 294 300 302 304 304 303 303 304 303 306 313 318 319 319 320 322 322 323 322 322 322 320 318 319 319 321 321
295 297 301 303 298 301 298 294 285 285 284 287 292 287 295 293 293 296 298 298 298 298 299 302 302 302 302 306 311 316 317 318 320 320 321 322 322 322 321 320 319 319 319 320
288 285 297 302 300 296 297 295 287 280 280 283 286 286 293 297 300 297 296 296 295 296 297 298 301 301 301 303 306 313 316 318 319 319 320 321 322 322 322 322 321 320 321 321
288 289 300 301 300 300 296 292 295 283 273 277 282 286 290 292 293 294 295 294 293 294 295 297 297 297 297 298 300 308 313 316 317 319 319 320 320 320 321 321 322 322 321 322
293 287 297 298 299 300 297 300 289 286 280 276 280 280 290 289 291 292 295 294 294 292 292 293 293 293 293 293 296 301 308 311 312 314 317 320 320 320 321 321 320 321 321 320
291 291 292 296 295 295 294 294 292 292 285 282 276 283 288 292 294 295 299 299 295 293 293 293 293 293 293 293 294 295 301 306 308 310 311 313 315 316 318 320 321 320 320 320
292 292 288 291 294 299 299 296 295 289 283 282 282 287 291 297 296 296 299 296 294 293 293 292 292 292 293 294 294 294 295 295 296 297 298 300 302 303 306 310 313 316 317 321
293 288 285 286 291 293 294 296 297 296 289 285 284 287 289 290 291 292 293 292 293 293 291 291 292 292 293 293 294 294 295 295 296 296 296 296 296 296 297 298 300 303 306 309
298 290 287 285 289 293 291 294 295 294 288 289 288 291 288 287 289 291 292 294 292 292 291 291 291 292 293 293 294 294 294 295 296 296 296 296 296 297 297 297 297 298 299 300
296 286 289 291 290 293 292 293 295 293 293 290 292 291 288 289 289 292 292 290 290 290 290 291 291 292 292 292 292 293 294 295 295 296 295 295 295 295 295 295 295 298 299 300
297 288 290 287 291 292 290 293 294 295 295 292 288 290 294 292 288 289 289 290 291 292 292 291 291 291 291 291 292 293 294 294 294 294 294 293 293 292 292 291 291 293 293 295
292 290 288 285 287 289 286 291 292 293 296 294 290 293 293 291 290 290 291 291 292 293 292 291 292 292 291 292 292 292 292 293 293 293 291 290 290 290 289 289 289 288 289 291
290 285 288 286 285 278 288 296 296 294 295 297 296 294 295 296 294 292 292 293 292 293 291 292 291 291 291 291 292 293 293 292 291 290 289 289 289 289 288 288 289 290 289 291
295 288 283 284 283 284 282 287 293 292 291 297 297 299 294 293 292 292 293 293 295 293 293 293 291 291 291 291 292 291 289 289 288 288 288 288 287 284 287 288 290 289 286 286
294 293 287 282 281 280 288 289 297 295 286 296 298 298 298 292 290 295 297 292 291 291 291 291 291 290 290 288 288 288 287 287 287 287 287 287 285 284 286 289 287 286 285 285
286 287 284 284 281 281 287 291 296 284 288 298 297 299 298 294 298 300 295 293 293 291 291 290 290 290 288 286 287 287 286 286 286 285 285 282 282 284 286 286 285 285 285 285
285 284 283 283 274 278 288 293 289 295 295 292 298 299 297 298 299 294 293 292 290 289 288 288 287 286 285 285 286 286 285 284 281 281 282 282 284 285 285 286 285 285 285 285
284 288 284 286 287 286 295 296 293 294 291 288 292 296 299 299 298 291 289 288 289 288 287 286 286 283 282 283 284 284 282 281 278 283 283 283 284 285 285 285 285 284 285 285
282 288 286 284 285 285 291 288 289 288 289 289 288 291 295 298 294 290 289 287 286 285 285 282 282 281 280 281 283 283 280 279 282 283 282 283 285 284 284 284 284 285 284 284
285 286 281 282 283 284 286 288 290 289 287 286 286 286 289 289 289 289 286 286 286 284 281 282 282 281 280 280 280 280 281 282 282 282 281 283 283 284 283 283 284 283 283 285
279 282 288 285 286 287 287 292 289 289 288 287 286 285 285 287 286 285 285 284 284 282 279 280 279 280 279 279 279 279 279 281 281 280 280 282 282 281 281 282 282 286 287 288
Wind_Speed
10 9 22 26 22 4 9 11 13 9 7 6 10 11 11 7 5 10 8 9 12 14 17 10 11 11 10 9 12 13 13 13 10 8 7 6 8 7 6 8 9 8 7 8
8 19 27 18 12 12 9 14 17 4 4 8 5 14 15 5 7 9 14 13 14 12 10 9 11 12 14 15 15 15 16 14 12 10 9 7 7 6 6 5 8 10 8 8
23 32 20 20 16 14 10 17 8 7 5 1 2 8 7 8 8 9 11 10 9 15 15 13 12 15 15 16 16 17 16 15 14 14 6 2 2 1 3 6 6 8 9 9
18 20 23 17 24 17 21 7 7 6 5 7 7 10 7 10 16 9 20 14 17 13 10 11 10 12 16 18 15 16 16 16 14 15 11 13 12 12 10 8 6 8 9 11
25 25 27 29 33 26 12 9 7 4 4 1 3 4 8 6 11 15 23 20 17 17 13 14 11 12 14 14 15 16 15 14 15 15 15 12 13 10 7 5 7 9 7 11
20 2 19 16 11 18 7 9 6 3 1 8 12 12 7 9 10 8 17 17 20 16 12 13 12 10 8 8 10 12 14 15 14 15 17 16 16 13 8 7 8 7 8 8
23 11 8 17 22 10 11 8 4 4 6 15 7 10 20 5 8 11 16 15 12 10 10 13 12 9 8 9 10 10 13 15 14 15 15 18 18 14 15 12 10 10 7 8
22 18 19 19 20 15 27 25 10 17 7 7 3 13 12 10 11 10 8 9 8 9 8 10 10 9 9 10 9 10 12 15 13 14 16 14 14 11 11 11 9 9 10 10
12 18 16 14 9 19 19 22 11 8 4 4 6 9 8 8 9 9 10 7 9 9 9 10 8 8 8 8 10 11 11 11 9 13 12 13 12 13 12 13 11 10 11 10
6 13 20 12 7 18 16 15 8 2 9 7 6 7 16 11 12 10 11 13 10 7 7 7 7 8 6 5 4 6 7 8 6 7 8 9 10 11 11 10 11 12 11 9
6 8 9 12 20 21 9 16 6 7 6 11 5 13 9 14 16 19 23 20 12 10 9 9 7 5 5 4 4 4 6 7 7 7 7 7 6 6 6 8 9 8 9 8
17 7 13 31 9 11 28 22 23 14 11 6 3 14 7 21 22 20 24 16 10 9 10 8 8 8 7 6 5 5 5 5 5 5 4 6 4 4 5 6 5 4 6 6
15 6 9 10 8 2 15 20 26 17 3 13 15 14 1 6 7 7 9 9 10 10 8 7 7 8 8 7 6 6 5 5 5 4 5 4 4 5 6 6 5 5 5 6
16 7 10 17 28 27 28 27 27 27 17 24 23 29 7 7 10 9 10 11 11 9 11 9 7 8 7 7 6 5 4 5 5 5 5 5 5 6 5 3 3 3 3 5
21 18 12 17 9 22 17 34 36 33 37 23 26 25 9 11 13 13 11 7 9 9 9 10 10 9 8 7 6 5 4 4 4 5 5 4 4 3 1 2 3 4 5 5
20 14 16 17 17 20 27 23 25 29 31 18 9 18 12 8 3 4 7 12 12 12 15 12 9 9 9 8 8 7 6 6 6 5 4 2 2 2 3 3 3 3 3 3
17 16 16 27 8 17 27 30 29 30 29 32 27 26 9 7 10 13 14 16 17 15 14 12 13 11 8 8 7 7 5 4 4 3 1 2 3 3 2 2 2 2 0 3
19 7 8 17 12 15 6 27 32 31 30 29 21 9 13 12 7 7 10 17 16 16 11 11 8 7 7 5 5 6 5 5 4 3 3 4 5 5 4 4 2 1 3 3
24 17 4 10 19 1 3 12 29 28 33 38 30 29 8 7 6 9 15 12 20 15 11 11 8 7 7 8 8 7 6 5 4 4 4 3 3 2 3 3 2 2 2 2
27 24 17 5 12 18 21 13 20 8 17 18 31 31 29 12 11 19 18 13 9 9 8 10 9 7 9 8 7 8 7 7 6 5 4 3 3 3 2 2 2 2 2 1
18 22 26 12 5 9 7 18 20 18 24 31 21 30 26 19 26 20 12 13 13 9 11 9 9 11 9 8 8 7 6 7 4 3 4 4 5 5 4 2 0 0 1 2
15 13 9 6 4 16 20 26 30 35 8 8 28 32 24 32 21 10 12 12 13 12 10 10 10 8 6 6 8 8 7 5 5 4 5 4 5 3 3 4 2 0 1 2
10 15 10 15 14 1 32 21 3 5 9 7 10 20 27 26 24 14 11 13 13 15 12 8 11 9 5 4 4 7 5 6 6 7 5 4 4 3 1 3 3 2 2 2
4 8 8 5 7 7 13 2 5 4 5 7 3 7 9 19 15 12 12 11 11 11 12 8 12 10 7 4 4 5 5 5 9 9 5 3 3 3 3 2 3 2 1 2
4 7 7 4 1 4 5 6 6 6 6 3 4 4 8 10 13 14 10 13 13 12 9 10 10 9 8 6 6 5 6 7 9 8 5 4 3 2 4 2 2 2 1 1
4 1 12 6 6 2 5 16 6 8 8 8 8 6 4 7 12 8 10 9 11 12 9 10 9 11 10 8 7 5 5 6 9 8 4 3 3 2 2 4 2 8 8 4
Wind_Direction
186 195 209 203 208 249 177 192 192 206 184 149 224 244 228 232 217 236 231 222 217 224 231 220 219 207 204 197 199 199 196 195 182 186 189 202 212 209 211 213 210 206 204 198
191 214 217 208 202 211 190 193 207 197 148 159 221 241 243 201 231 217 225 225 227 228 228 220 205 199 203 204 205 206 204 200 198 200 205 212 207 219 218 198 210 214 207 198
200 218 204 201 201 205 216 204 187 202 117 326 121 269 236 243 238 243 243 244 230 215 225 223 206 203 199 206 203 205 206 201 200 203 194 139 75 92 192 218 218 217 209 209
215 217 193 193 209 193 216 157 169 158 147 225 172 268 234 228 232 211 245 225 232 228 220 225 204 203 202 209 204 206 204 201 199 195 193 202 211 220 224 227 226 226 205 215
193 189 187 201 196 189 225 137 159 140 187 100 212 259 255 154 230 229 235 234 235 226 216 218 214 203 210 208 201 203 202 198 199 197 201 201 213 222 218 197 205 207 206 214
208 248 187 196 193 192 112 118 62 63 148 242 201 214 225 196 198 228 238 238 237 235 221 218 216 209 200 201 201 197 194 201 194 197 203 203 212 214 208 206 212 211 215 214
202 199 171 169 184 164 154 185 126 208 215 240 213 195 239 228 229 213 223 230 232 223 217 222 206 195 199 189 190 190 192 204 196 196 200 208 214 210 216 216 218 216 215 219
192 211 181 183 192 175 190 191 177 199 188 207 125 226 241 220 216 237 250 258 258 239 222 221 213 192 203 205 195 191 196 206 197 201 208 210 216 217 219 223 223 220 222 223
208 215 180 184 180 165 185 208 201 94 28 64 204 277 294 236 247 252 246 240 255 237 213 218 221 213 211 206 206 197 196 205 189 198 205 210 213 214 216 220 221 225 225 231
280 205 188 198 195 206 186 177 173 54 167 228 259 277 229 190 217 235 233 233 231 223 202 192 187 176 179 181 191 195 201 201 189 184 196 209 215 218 224 225 225 228 233 225
210 255 184 160 208 181 168 188 186 154 168 203 212 245 205 206 207 207 213 212 202 198 199 194 193 180 161 138 144 154 174 175 183 193 197 210 220 222 230 230 234 230 234 227
187 275 203 197 163 217 202 196 195 199 182 217 162 254 202 196 198 203 212 201 186 189 198 191 183 167 163 157 150 173 185 187 197 192 199 227 246 252 249 249 255 264 254 245
179 251 182 174 210 193 217 203 201 224 238 217 222 253 328 217 229 200 185 192 190 188 186 176 164 181 176 177 178 188 191 197 183 175 195 217 233 234 248 260 269 274 283 282
170 222 235 213 197 192 205 211 192 196 211 214 216 241 247 246 232 217 213 195 179 179 180 182 188 190 186 184 187 199 208 197 194 187 204 216 225 230 232 244 269 298 330 326
211 230 243 238 252 202 215 211 204 200 215 215 225 232 231 221 217 216 208 171 165 178 178 188 191 187 189 190 199 209 218 206 202 211 228 238 244 239 289 334 11 5 339 326
214 224 210 234 236 207 215 206 209 212 214 223 243 233 198 219 164 174 184 167 184 191 193 191 178 185 190 190 193 196 207 213 196 212 242 324 342 26 34 39 52 29 357 346
236 203 198 225 187 219 212 197 198 208 215 210 216 221 161 194 196 199 195 193 184 193 192 182 192 191 183 186 180 201 202 166 176 199 162 154 163 166 161 146 123 99 191 231
221 216 216 218 163 222 222 211 205 207 211 221 239 233 197 211 227 170 195 192 197 199 184 185 181 169 176 154 154 151 154 156 165 193 199 180 177 180 175 163 146 240 235 234
232 194 230 216 199 162 249 203 190 193 220 215 224 234 202 165 111 251 214 205 198 192 183 184 162 154 143 171 170 146 138 144 152 182 195 190 192 183 181 171 215 236 275 330
220 214 200 208 198 209 224 185 207 187 263 199 213 223 218 149 195 228 198 186 193 180 167 155 148 143 161 179 146 141 155 155 171 170 160 148 148 159 172 228 215 166 129 175
200 203 204 195 198 271 212 157 138 168 231 220 207 224 209 197 211 216 159 193 190 171 160 140 152 169 169 151 137 145 156 177 162 156 136 125 130 143 169 120 62 86 174 151
177 184 184 177 123 248 162 149 165 206 243 215 210 215 201 212 211 190 177 171 161 153 145 153 154 159 148 143 138 148 161 146 137 150 116 112 101 94 117 129 105 128 127 52
176 203 180 196 210 166 166 182 157 141 161 184 185 217 215 214 206 167 166 158 166 163 157 153 153 135 123 113 126 152 158 148 138 91 76 68 84 78 76 124 140 142 136 116
270 174 195 106 211 190 204 46 98 103 158 168 187 196 175 196 173 175 157 152 161 160 159 145 140 143 140 136 112 122 153 161 127 115 114 131 126 133 138 134 140 155 136 93
172 142 159 265 61 82 246 223 160 124 115 123 87 168 188 149 169 167 163 162 165 157 140 148 150 143 141 141 132 147 168 148 120 115 137 146 122 155 121 81 93 135 122 171
358 337 199 232 149 134 203 211 158 140 166 179 154 135 112 153 156 145 155 159 156 151 138 133 132 137 147 147 147 159 139 147 122 119 138 172 143 175 133 113 50 55 66 76